| time (UTC) | temp C | wind direction | speed KPH | gust KPH | rain 1hr cm | rain 24hr cm | rain mn cm | humidity % | barometer mb |
| 20260505025004 | 13 | 155 | 1.6 | 0.0 | 0.00 | 0.00 | 0.00 | 100 | 1010.3 |
| 20260505024518 | 13 | 159 | 0.0 | 0.0 | 0.00 | 0.00 | 0.00 | 100 | 1010.3 |
| 20260505024027 | 13 | 150 | 0.0 | 0.0 | 0.00 | 0.00 | 0.00 | 100 | 1010.4 |
| 20260505023541 | 13 | 148 | 0.0 | 0.0 | 0.00 | 0.00 | 0.00 | 100 | 1010.4 |
| 20260505023052 | 13 | 147 | 0.0 | 0.0 | 0.00 | 0.00 | 0.00 | 100 | 1010.4 |
| 20260505022508 | 13 | 147 | 0.0 | 0.0 | 0.00 | 0.00 | 0.00 | 100 | 1010.4 |
| 20260505022023 | 14 | 147 | 0.0 | 0.0 | 0.00 | 0.00 | 0.00 | 100 | 1010.5 |
| 20260505021532 | 14 | 147 | 0.0 | 0.0 | 0.00 | 0.00 | 0.00 | 100 | 1010.5 |
| 20260505021046 | 14 | 147 | 0.0 | 0.0 | 0.00 | 0.00 | 0.00 | 100 | 1010.5 |
| 20260505020555 | 14 | 147 | 1.6 | 0.0 | 0.00 | 0.00 | 0.00 | 100 | 1010.4 |
| 20260505020011 | 14 | 228 | 0.0 | 0.0 | 0.00 | 0.00 | 0.00 | 100 | 1010.4 |
| 20260505015522 | 14 | 208 | 0.0 | 0.0 | 0.00 | 0.00 | 0.00 | 100 | 1010.3 |
| 20260505015036 | 15 | 205 | 0.0 | 0.0 | 0.00 | 0.00 | 0.00 | 100 | 1010.3 |
| 20260505014603 | 15 | 206 | 0.0 | 0.0 | 0.00 | 0.00 | 0.00 | 100 | 1010.3 |
| 20260505014102 | 15 | 191 | 0.0 | 0.0 | 0.00 | 0.00 | 0.00 | 100 | 1010.3 |
| 20260505014001 | 15 | 191 | 0.0 | 0.0 | 0.00 | 0.00 | 0.00 | 100 | 1010.3 |
| 20260505013513 | 15 | 208 | 1.6 | 0.0 | 0.00 | 0.00 | 0.00 | 100 | 1010.3 |
| 20260505013034 | 15 | 208 | 1.6 | 0.0 | 0.00 | 0.00 | 0.00 | 100 | 1010.2 |
| 20260505012535 | 15 | 230 | 1.6 | 0.0 | 0.00 | 0.00 | 0.00 | 100 | 1010.1 |
| 20260505012050 | 15 | 209 | 0.0 | 0.0 | 0.00 | 0.00 | 0.00 | 100 | 1010.0 |
| 20260505011600 | 15 | 208 | 0.0 | 0.0 | 0.00 | 0.00 | 0.00 | 100 | 1010.0 |
| 20260505011501 | 15 | 208 | 1.6 | 0.0 | 0.00 | 0.00 | 0.00 | 100 | 1010.0 |
| 20260505011015 | 15 | 219 | 1.6 | 0.0 | 0.00 | 0.00 | 0.00 | 100 | 1009.9 |
| 20260505010526 | 15 | 201 | 1.6 | 0.0 | 0.00 | 0.00 | 0.00 | 100 | 1009.8 |
| 20260505010052 | 15 | 177 | 1.6 | 0.0 | 0.00 | 0.00 | 0.00 | 100 | 1009.8 |
| 20260505005554 | 16 | 231 | 1.6 | 0.0 | 0.00 | 0.00 | 0.00 | 100 | 1009.7 |
| 20260505005054 | 16 | 210 | 1.6 | 0.0 | 0.00 | 0.00 | 0.00 | 100 | 1009.4 |
| 20260505004508 | 16 | 218 | 1.6 | 0.0 | 0.00 | 0.00 | 0.00 | 100 | 1009.4 |
| 20260505004020 | 16 | 179 | 0.0 | 0.0 | 0.00 | 0.00 | 0.00 | 100 | 1009.3 |
| 20260505003529 | 16 | 296 | 0.0 | 0.0 | 0.00 | 0.00 | 0.00 | 100 | 1009.1 |
| 20260505003055 | 16 | 296 | 0.0 | 0.0 | 0.00 | 0.00 | 0.00 | 100 | 1009.0 |
| 20260505002554 | 16 | 246 | 0.0 | 0.0 | 0.00 | 0.00 | 0.00 | 100 | 1008.9 |
| 20260505002501 | 16 | 246 | 0.0 | 0.0 | 0.00 | 0.00 | 0.00 | 100 | 1008.9 |
| 20260505002010 | 16 | 246 | 0.0 | 0.0 | 0.00 | 0.00 | 0.00 | 100 | 1008.7 |
| 20260505001525 | 16 | 246 | 1.6 | 0.0 | 0.00 | 0.00 | 0.00 | 100 | 1008.6 |
| 20260505001033 | 17 | 185 | 1.6 | 0.0 | 0.00 | 0.00 | 0.00 | 100 | 1008.5 |
| 20260505000548 | 17 | 131 | 1.6 | 0.0 | 0.00 | 0.00 | 0.00 | 100 | 1008.3 |
| 20260504235514 | 17 | 289 | 3.2 | 0.0 | 0.00 | 0.00 | 0.00 | 100 | 1008.1 |
| 20260504235024 | 17 | 242 | 1.6 | 0.0 | 0.00 | 0.00 | 0.00 | 100 | 1008.1 |
| 20260504234537 | 17 | 138 | 1.6 | 0.0 | 0.00 | 0.00 | 0.00 | 100 | 1007.9 |
| 20260504234047 | 17 | 239 | 1.6 | 0.0 | 0.00 | 0.00 | 0.00 | 100 | 1007.8 |
| 20260504233503 | 17 | 164 | 1.6 | 0.0 | 0.00 | 0.00 | 0.00 | 100 | 1007.9 |
| 20260504233016 | 17 | 204 | 1.6 | 0.0 | 0.00 | 0.00 | 0.00 | 100 | 1007.8 |
| 20260504232530 | 18 | 274 | 3.2 | 0.0 | 0.00 | 0.00 | 0.00 | 100 | 1007.7 |
| 20260504232038 | 18 | 232 | 3.2 | 0.0 | 0.00 | 0.00 | 0.00 | 100 | 1007.6 |
| 20260504231552 | 18 | 152 | 3.2 | 0.0 | 0.00 | 0.00 | 0.00 | 100 | 1007.6 |
| 20260504231003 | 18 | 301 | 4.8 | 0.0 | 0.00 | 0.00 | 0.00 | 100 | 1007.5 |
| 20260504230519 | 18 | 236 | 3.2 | 0.0 | 0.00 | 0.00 | 0.00 | 99 | 1007.5 |
| 20260504230028 | 19 | 236 | 1.6 | 0.0 | 0.00 | 0.00 | 0.00 | 98 | 1007.3 |
| 20260504225542 | 19 | 283 | 1.6 | 0.0 | 0.00 | 0.00 | 0.00 | 98 | 1007.1 |
| 20260504225051 | 19 | 227 | 3.2 | 0.0 | 0.00 | 0.00 | 0.00 | 97 | 1007.0 |
| 20260504224515 | 19 | 226 | 3.2 | 0.0 | 0.00 | 0.00 | 0.00 | 97 | 1007.0 |
| 20260504224018 | 20 | 214 | 3.2 | 0.0 | 0.00 | 0.00 | 0.00 | 96 | 1006.8 |
| 20260504223532 | 20 | 212 | 1.6 | 0.0 | 0.00 | 0.00 | 0.00 | 96 | 1006.8 |
| 20260504223058 | 20 | 173 | 1.6 | 0.0 | 0.00 | 0.00 | 0.00 | 95 | 1006.7 |
| 20260504222556 | 20 | 107 | 1.6 | 0.0 | 0.00 | 0.00 | 0.00 | 94 | 1006.8 |
| 20260504222012 | 20 | 197 | 3.2 | 0.0 | 0.00 | 0.00 | 0.00 | 94 | 1006.8 |
| 20260504221523 | 20 | 266 | 3.2 | 0.0 | 0.00 | 0.00 | 0.00 | 94 | 1006.7 |
| 20260504221037 | 21 | 212 | 4.8 | 0.0 | 0.00 | 0.00 | 0.00 | 92 | 1006.7 |
| 20260504220546 | 21 | 271 | 3.2 | 0.0 | 0.00 | 0.00 | 0.00 | 91 | 1006.7 |
| 20260504220003 | 21 | 186 | 1.6 | 0.0 | 0.00 | 0.00 | 0.00 | 90 | 1006.7 |
| 20260504215512 | 21 | 246 | 0.0 | 0.0 | 0.00 | 0.00 | 0.00 | 89 | 1006.6 |
| 20260504215029 | 21 | 318 | 1.6 | 0.0 | 0.00 | 0.00 | 0.00 | 89 | 1006.7 |
| 20260504214535 | 21 | 191 | 1.6 | 0.0 | 0.00 | 0.00 | 0.00 | 88 | 1006.7 |
| 20260504214052 | 21 | 227 | 1.6 | 0.0 | 0.00 | 0.00 | 0.00 | 89 | 1006.7 |
| 20260504213600 | 21 | 177 | 1.6 | 0.0 | 0.00 | 0.00 | 0.00 | 88 | 1006.6 |
| 20260504213504 | 21 | 176 | 1.6 | 0.0 | 0.00 | 0.00 | 0.00 | 89 | 1006.6 |
| 20260504213023 | 21 | 212 | 3.2 | 0.0 | 0.00 | 0.00 | 0.00 | 88 | 1006.7 |
| 20260504212526 | 22 | 247 | 3.2 | 0.0 | 0.00 | 0.00 | 0.00 | 87 | 1006.6 |
| 20260504212039 | 22 | 220 | 3.2 | 0.0 | 0.00 | 0.00 | 0.00 | 87 | 1006.7 |
| 20260504211633 | 22 | 248 | 3.2 | 0.0 | 0.00 | 0.00 | 0.00 | 88 | 1006.5 |
| 20260504211006 | 21 | 281 | 1.6 | 0.0 | 0.00 | 0.00 | 0.00 | 88 | 1006.6 |
| 20260504210516 | 22 | 208 | 3.2 | 0.0 | 0.00 | 0.00 | 0.00 | 88 | 1006.5 |
| 20260504210033 | 22 | 167 | 1.6 | 0.0 | 0.00 | 0.00 | 0.00 | 88 | 1006.6 |
| 20260504205539 | 22 | 221 | 1.6 | 0.0 | 0.00 | 0.00 | 0.00 | 87 | 1006.6 |
| 20260504205053 | 22 | 268 | 1.6 | 0.0 | 0.00 | 0.00 | 0.00 | 87 | 1006.5 |
| 20260504204506 | 22 | 196 | 1.6 | 0.0 | 0.00 | 0.00 | 0.00 | 87 | 1006.5 |
| 20260504204020 | 22 | 249 | 1.6 | 0.0 | 0.00 | 0.00 | 0.00 | 87 | 1006.5 |
| 20260504203530 | 22 | 174 | 1.6 | 0.0 | 0.00 | 0.00 | 0.00 | 87 | 1006.7 |
| 20260504203044 | 22 | 213 | 3.2 | 0.0 | 0.00 | 0.00 | 0.00 | 87 | 1006.6 |
| 20260504202554 | 22 | 285 | 3.2 | 0.0 | 0.00 | 0.00 | 0.00 | 87 | 1006.6 |
| 20260504202501 | 22 | 291 | 3.2 | 0.0 | 0.00 | 0.00 | 0.00 | 87 | 1006.7 |
| 20260504202010 | 21 | 209 | 3.2 | 0.0 | 0.00 | 0.00 | 0.00 | 87 | 1006.7 |
| 20260504081527 | 6 | 340 | 0.0 | 0.0 | 0.00 | 0.00 | 0.00 | 100 | 1010.6 |
| 20260504081036 | 6 | 340 | 0.0 | 0.0 | 0.00 | 0.00 | 0.00 | 100 | 1010.5 |
| 20260504080551 | 6 | 340 | 0.0 | 0.0 | 0.00 | 0.00 | 0.00 | 100 | 1010.5 |
| 20260504070129 | 5 | 340 | 0.0 | 0.0 | 0.00 | 0.00 | 0.00 | 100 | 1010.4 |
| 20260504050600 | 1 | 340 | 0.0 | 0.0 | 0.00 | 0.00 | 0.00 | 86 | 1010.4 |
| 20260504050503 | 1 | 340 | 0.0 | 0.0 | 0.00 | 0.00 | 0.00 | 87 | 1010.5 |
| 20260504050025 | 1 | 340 | 0.0 | 0.0 | 0.00 | 0.00 | 0.00 | 88 | 1010.5 |
| 20260504045526 | 1 | 340 | 0.0 | 0.0 | 0.00 | 0.00 | 0.00 | 91 | 1010.4 |
| 20260504045040 | 1 | 340 | 0.0 | 0.0 | 0.00 | 0.00 | 0.00 | 95 | 1010.5 |
| 20260504044550 | 1 | 340 | 0.0 | 0.0 | 0.00 | 0.00 | 0.00 | 98 | 1010.5 |
| 20260504044006 | 1 | 340 | 0.0 | 0.0 | 0.00 | 0.00 | 0.00 | 100 | 1010.6 |
| 20260504043523 | 1 | 340 | 0.0 | 0.0 | 0.00 | 0.00 | 0.00 | 100 | 1010.6 |
| 20260504043031 | 1 | 340 | 0.0 | 0.0 | 0.00 | 0.00 | 0.00 | 100 | 1010.5 |
| 20260504042548 | 1 | 340 | 0.0 | 0.0 | 0.00 | 0.00 | 0.00 | 100 | 1010.5 |
| 20260504042054 | 1 | 340 | 0.0 | 0.0 | 0.00 | 0.00 | 0.00 | 100 | 1010.4 |
| 20260504041515 | 1 | 340 | 0.0 | 0.0 | 0.00 | 0.00 | 0.00 | 100 | 1010.4 |
| 20260504041020 | 1 | 340 | 0.0 | 0.0 | 0.00 | 0.00 | 0.00 | 100 | 1010.4 |
| 20260504040534 | 2 | 340 | 0.0 | 0.0 | 0.00 | 0.00 | 0.00 | 100 | 1010.3 |
| 20260504040051 | 2 | 340 | 0.0 | 0.0 | 0.00 | 0.00 | 0.00 | 100 | 1010.3 |
| 20260504035552 | 2 | 340 | 0.0 | 0.0 | 0.00 | 0.00 | 0.00 | 100 | 1010.2 |
| 20260504035009 | 2 | 340 | 0.0 | 0.0 | 0.00 | 0.00 | 0.00 | 100 | 1010.1 |
| 20260504034519 | 2 | 340 | 0.0 | 0.0 | 0.00 | 0.00 | 0.00 | 100 | 1010.1 |
| 20260504034034 | 2 | 340 | 0.0 | 0.0 | 0.00 | 0.00 | 0.00 | 100 | 1010.1 |
| 20260504033541 | 2 | 340 | 0.0 | 0.0 | 0.00 | 0.00 | 0.00 | 100 | 1010.0 |
| 20260504033056 | 2 | 340 | 0.0 | 0.0 | 0.00 | 0.00 | 0.00 | 100 | 1010.0 |
| 20260504032513 | 2 | 340 | 0.0 | 0.0 | 0.00 | 0.00 | 0.00 | 100 | 1010.0 |
| 20260504032021 | 2 | 340 | 0.0 | 0.0 | 0.00 | 0.00 | 0.00 | 100 | 1010.0 |
| 20260504031551 | 2 | 340 | 0.0 | 0.0 | 0.00 | 0.00 | 0.00 | 100 | 1010.1 |
| 20260504031046 | 2 | 340 | 0.0 | 0.0 | 0.00 | 0.00 | 0.00 | 100 | 1010.0 |
| 20260504030601 | 2 | 340 | 0.0 | 0.0 | 0.00 | 0.00 | 0.00 | 100 | 1010.0 |
| 20260504030010 | 2 | 340 | 0.0 | 0.0 | 0.00 | 0.00 | 0.00 | 100 | 1010.0 |
| 20260504025522 | 3 | 340 | 0.0 | 0.0 | 0.00 | 0.00 | 0.00 | 100 | 1010.0 |